[[{"header":{"parameterUnit":"m.s-1","parameterCategory":1,"la1":30.2991,"la2":30.254,"lo1":-89.0895,"lo2":-89.0444,"dy":0.0017,"dx":0.0017,"nx":28,"ny":28,"refTime":"2025-03-20T21:00:00:Z","depth":0,"parameterNumber":2,"parameterNumberName":"U-component_of_WINDS"},"data":[0,0,0,0,0,0,0,0,0,0,0,0,0,0,0,0,0,0,0,0,0,0,0,0,0,0,0,0,0,0,0,0,0,0,0,0,0,0,0,0,0,0,0,0,0,0,0,0,0,0,0,0,0,0,0,0,0,0,3.83,3.8301,0,3.8348,3.8348,3.8349,3.8292,3.829,3.8288,3.8286,3.8333,3.8336,3.8339,0,0,0,0,0,0,0,0,0,0,0,0,0,3.8162,3.8165,3.83,3.8301,3.8302,3.8348,3.8348,3.8349,3.8293,3.829,3.8288,3.8285,3.8332,3.8336,3.834,0,0,0,0,0,0,0,0,0,0,0,0,0,3.8217,3.8166,3.83,3.8279,3.8278,3.8347,3.8348,3.8349,3.8293,3.829,3.8287,3.8284,3.8331,3.8336,3.834,3.8432,0,0,3.8355,3.8357,0,0,0,0,0,0,0,0,3.8214,3.8222,3.8282,3.8281,3.8279,3.8311,3.8316,3.8377,3.8294,3.8287,3.8286,3.8283,3.8328,3.8333,3.8349,3.8435,3.8437,3.8355,3.8358,3.836,3.8362,0,0,0,0,0,0,0,3.821,3.822,3.8319,3.8283,3.8281,3.8267,3.8272,3.8328,3.8325,3.8288,3.8284,3.829,3.8327,3.8344,3.8349,3.8437,3.8355,3.8359,3.8362,3.8364,3.8603,3.8606,0,0,0,0,0,0,3.8209,3.8217,3.8317,3.832,3.8238,3.8273,3.8277,3.8304,3.8324,3.8324,3.8293,3.8287,3.8338,3.8344,3.8351,3.8461,3.836,3.8365,3.8367,3.86,3.8604,3.8608,0,0,0,0,0,0,3.8206,3.8218,3.8316,3.8268,3.8279,3.8278,3.8309,3.8307,3.8324,3.8328,3.8327,3.8311,3.8335,3.8344,3.8413,3.8462,3.8367,3.8371,3.8596,3.8601,3.8606,3.8682,0,0,0,0,0,0,3.8202,3.8218,3.8252,3.8269,3.8282,3.8377,3.8312,3.831,3.8332,3.8326,3.8345,3.8345,3.8334,3.8406,3.8418,3.8467,3.8375,3.8591,3.8598,3.8604,3.8675,3.8689,3.8701,0,0,0,0,0,3.8198,3.8271,3.8254,3.8267,3.8325,3.838,3.8387,3.8373,3.8336,3.8372,3.8375,3.8344,3.8455,3.8414,3.8426,3.8477,3.8588,3.8596,3.8604,3.8669,3.8686,3.87,0,0,0,0,0,0,3.8259,3.8273,3.8254,3.8335,3.8357,3.837,3.8414,3.8392,3.8424,3.8416,3.8397,3.8402,3.8476,3.8483,3.8437,3.8569,3.8515,3.8526,3.8561,3.8577,3.859,3.8586,3.8379,0,0,0,0,0,3.8282,3.8326,3.8335,3.8406,3.8418,3.8415,3.8438,3.8426,3.8447,3.8456,3.8463,3.8485,3.8525,3.8551,3.8588,3.8676,3.868,3.8718,3.8731,3.8741,3.875,3.8799,3.8816,3.8633,3.8633,3.8633,0,0,3.833,3.8343,3.8372,3.8419,3.8434,3.848,3.8422,3.8473,3.8507,3.8463,3.8529,3.8536,3.8559,3.8638,3.8674,3.8647,3.8802,3.8751,3.876,3.8763,3.8809,3.8826,3.8841,3.8639,3.8638,3.8637,0,0,3.8441,3.8455,3.8516,3.8533,3.8558,3.8556,3.8571,3.8588,3.8591,3.8657,3.8626,3.8666,3.8735,3.8753,3.8771,3.8893,3.8866,3.8905,3.8973,3.902,3.9035,3.9047,3.9091,3.9107,3.8914,3.8915,3.8915,0,3.8497,3.8565,3.855,3.8604,3.8626,3.859,3.8652,3.8669,3.8704,3.8721,3.8691,3.8778,3.8791,3.8874,3.8904,3.892,3.8937,3.8902,3.9034,3.9046,3.9058,3.9099,3.9116,3.8919,3.8919,3.8918,3.8918,0,3.8633,3.8681,3.8728,3.8764,3.8791,3.8849,3.8843,3.8873,3.8859,3.886,3.8929,3.8944,3.8984,3.9003,3.8989,3.9085,3.9068,3.9037,3.8983,3.908,3.9119,3.9135,3.8926,3.8924,3.8923,3.8922,0,0,3.8782,3.8811,3.8829,3.8845,3.8871,3.8908,3.8965,3.9004,3.9031,3.9057,3.9104,3.9165,3.9136,3.9157,3.9145,3.9187,3.9284,3.915,3.9151,3.9175,3.9392,3.9415,3.9434,3.9267,3.927,3.9272,3.939,0,3.8893,3.8992,3.8981,3.9075,3.912,3.9088,3.9137,3.9159,3.9162,3.92,3.9204,3.9247,3.9206,3.9218,3.9259,3.9263,3.9327,3.9255,3.9311,3.9313,3.9305,3.9454,3.9478,3.9589,3.9405,3.9407,3.9409,0,3.9036,3.9069,3.9167,3.9188,3.9206,3.9251,3.9288,3.9325,3.9349,3.9349,3.9374,3.9356,3.9413,3.936,3.9439,3.939,3.9413,3.9419,3.9423,3.9427,3.9366,3.9462,3.9624,3.964,3.9433,3.9431,3.9429,0,3.9135,3.9204,3.9272,3.9287,3.9313,3.9346,3.9358,3.9379,3.9405,3.9437,3.9454,3.9492,3.9513,3.9544,3.9537,3.9498,3.9619,3.9564,3.962,3.9621,3.9646,3.9644,3.9813,3.9661,3.9661,3.9661,3.966,0,3.926,3.9322,3.9317,3.9359,3.9428,3.9416,3.9484,3.9492,3.9512,3.9556,3.953,3.9572,3.956,3.9601,3.9596,3.9664,3.9673,3.9675,3.9672,3.9677,3.9677,3.9691,3.9683,3.9665,3.9664,3.9663,3.9663,0,3.9382,3.9381,3.9454,3.9473,3.948,3.953,3.9546,3.9586,3.9588,3.9644,3.9656,3.9659,3.9707,3.9703,3.9756,3.9753,3.9836,3.9825,3.9828,3.9826,3.9882,3.9877,4.0066,4.009,3.9923,3.9924,3.9926,0,3.9461,3.9508,3.9534,3.9561,3.9576,3.9621,3.9647,3.9638,3.9667,3.97,3.9736,3.9781,3.9817,3.9894,3.9901,3.9942,3.9931,3.9995,3.9937,3.9941,3.9933,3.993,3.9935,4.0006,4.0008,4.0009,4.0011,0,3.9603,3.9601,3.964,3.9681,3.9713,3.9744,3.9772,3.9796,3.979,3.9824,3.9872,3.99,3.9955,4.0001,4.004,4.0053,4.0032,4.0029,4.0044,4.0049,4.0049,4.005,3.9859,4.0024,4.0023,4.0022,4.0021,4.0021,3.9706,3.9747,3.9772,3.9817,3.9838,3.9865,3.9904,3.9912,3.9953,3.9997,3.999,4.0045,4.007,4.0121,4.0138,4.0181,4.0158,4.018,4.0185,4.0191,4.0198,4.0043,4.0188,4.0187,4.0187,4.0187,4.0186,0,3.9847,3.9862,3.9904,3.9945,3.9981,3.9959,3.9989,4.0021,4.0069,4.0095,4.0131,4.0188,4.0233,4.0245,4.0288,4.032,4.0311,4.0332,4.0329,4.0332,4.0215,4.0198,4.0338,4.0338,4.0338,4.0338,4.0338,4.0338,3.9924,3.9993,3.9994,4.0073,4.0087,4.0142,4.0161,4.0187,4.0207,4.0272,4.031,4.0317,4.0338,4.0383,4.0423,4.0426,4.0443,4.0467,4.0466,4.0356,4.034,4.0326,4.0309,4.0471,4.0471,4.0579,4.058,4.0581]},{"header":{"parameterUnit":"m.s-1","parameterCategory":1,"la1":30.2991,"la2":30.254,"lo1":-89.0895,"lo2":-89.0444,"dy":0.0017,"dx":0.0017,"nx":28,"ny":28,"refTime":"2025-03-20T21:00:00:Z","depth":0,"parameterNumber":3,"parameterNumberName":"V-component_of_WINDS"},"data":[0,0,0,0,0,0,0,0,0,0,0,0,0,0,0,0,0,0,0,0,0,0,0,0,0,0,0,0,0,0,0,0,0,0,0,0,0,0,0,0,0,0,0,0,0,0,0,0,0,0,0,0,0,0,0,0,0,0,-7.0519,-7.0521,0,-7.0691,-7.0693,-7.0695,-7.065,-7.0646,-7.0643,-7.064,-7.0812,-7.082,-7.0828,0,0,0,0,0,0,0,0,0,0,0,0,0,-7.0148,-7.0155,-7.0519,-7.0521,-7.0523,-7.0691,-7.0693,-7.0696,-7.065,-7.0646,-7.0642,-7.0638,-7.081,-7.0819,-7.0828,0,0,0,0,0,0,0,0,0,0,0,0,0,-7.0313,-7.0157,-7.0518,-7.0521,-7.0523,-7.069,-7.0693,-7.0696,-7.0651,-7.0646,-7.0641,-7.0636,-7.0807,-7.0818,-7.083,-7.1004,0,0,-7.0865,-7.087,0,0,0,0,0,0,0,0,-7.0304,-7.0327,-7.0518,-7.0521,-7.0524,-7.0644,-7.0626,-7.0799,-7.0653,-7.0602,-7.064,-7.0634,-7.076,-7.0775,-7.0819,-7.1012,-7.102,-7.0866,-7.0873,-7.0878,-7.0882,0,0,0,0,0,0,0,-7.0293,-7.0319,-7.0587,-7.0521,-7.0524,-7.0513,-7.053,-7.0658,-7.0708,-7.0606,-7.0604,-7.0625,-7.0761,-7.0808,-7.0823,-7.1022,-7.0866,-7.0876,-7.0884,-7.0888,-7.1368,-7.1373,0,0,0,0,0,0,-7.028,-7.031,-7.0581,-7.0592,-7.0399,-7.0523,-7.0543,-7.061,-7.0706,-7.0716,-7.0629,-7.0622,-7.079,-7.0809,-7.0828,-7.1039,-7.0878,-7.0889,-7.0896,-7.1362,-7.1369,-7.1375,0,0,0,0,0,0,-7.0272,-7.0304,-7.0574,-7.0451,-7.0484,-7.0535,-7.0611,-7.0616,-7.0663,-7.0723,-7.0732,-7.0668,-7.0787,-7.0812,-7.0961,-7.1045,-7.0895,-7.0905,-7.1355,-7.1364,-7.1372,-7.1463,0,0,0,0,0,0,-7.0261,-7.0302,-7.0369,-7.0452,-7.0491,-7.0705,-7.0616,-7.0624,-7.0684,-7.0677,-7.0762,-7.0772,-7.0785,-7.0944,-7.0973,-7.1058,-7.0914,-7.1348,-7.1359,-7.1369,-7.1452,-7.1473,-7.1491,0,0,0,0,0,-7.0248,-7.0387,-7.0373,-7.0406,-7.0576,-7.071,-7.0732,-7.0746,-7.0691,-7.0759,-7.0798,-7.0769,-7.1031,-7.096,-7.0992,-7.1082,-7.1343,-7.1356,-7.1369,-7.1444,-7.1469,-7.1491,0,0,0,0,0,0,-7.031,-7.0398,-7.0383,-7.0553,-7.0625,-7.0702,-7.0788,-7.0772,-7.086,-7.0849,-7.0861,-7.0881,-7.1033,-7.1072,-7.0991,-7.1256,-7.1179,-7.1199,-7.1225,-7.125,-7.1269,-7.1256,-7.0924,0,0,0,0,0,-7.0344,-7.0447,-7.0517,-7.066,-7.0697,-7.0737,-7.0795,-7.08,-7.0874,-7.0904,-7.0953,-7.1026,-7.1125,-7.1189,-7.1283,-7.1458,-7.1476,-7.1536,-7.1555,-7.157,-7.1587,-7.1683,-7.1711,-7.1418,-7.1418,-7.1417,0,0,-7.0414,-7.0474,-7.0538,-7.0674,-7.073,-7.0835,-7.0762,-7.0877,-7.0955,-7.0921,-7.1065,-7.1104,-7.1186,-7.1349,-7.1423,-7.1386,-7.1673,-7.1587,-7.1599,-7.1608,-7.1699,-7.1727,-7.1752,-7.1426,-7.1425,-7.1423,0,0,-7.0596,-7.0652,-7.0777,-7.0836,-7.0923,-7.0948,-7.0979,-7.106,-7.1085,-7.123,-7.1208,-7.13,-7.147,-7.1529,-7.1581,-7.1787,-7.1764,-7.1817,-7.1918,-7.2011,-7.2034,-7.2055,-7.2128,-7.2155,-7.1834,-7.1834,-7.1834,0,-7.0671,-7.083,-7.0843,-7.0961,-7.1021,-7.0997,-7.1124,-7.118,-7.1292,-7.1334,-7.1291,-7.1505,-7.1558,-7.1735,-7.1785,-7.1828,-7.1863,-7.1807,-7.203,-7.2051,-7.207,-7.214,-7.2168,-7.184,-7.1839,-7.1839,-7.1838,0,-7.0919,-7.103,-7.1121,-7.1232,-7.1302,-7.1424,-7.1455,-7.1524,-7.1523,-7.1553,-7.1702,-7.1765,-7.1872,-7.1914,-7.1913,-7.2091,-7.2066,-7.2027,-7.1949,-7.2104,-7.217,-7.2197,-7.1849,-7.1846,-7.1845,-7.1843,0,0,-7.1143,-7.1262,-7.1295,-7.1345,-7.144,-7.1525,-7.1646,-7.1752,-7.1811,-7.189,-7.1991,-7.2136,-7.2101,-7.216,-7.2166,-7.2248,-7.2407,-7.2199,-7.2201,-7.2235,-7.2608,-7.2636,-7.2667,-7.2393,-7.2398,-7.2402,-7.2601,0,-7.1333,-7.1547,-7.1563,-7.1755,-7.1857,-7.1837,-7.1941,-7.201,-7.2042,-7.2133,-7.2167,-7.227,-7.2216,-7.2252,-7.2332,-7.2371,-7.2482,-7.2357,-7.2486,-7.2491,-7.2466,-7.2702,-7.2732,-7.2917,-7.2627,-7.2631,-7.2634,0,-7.1583,-7.1671,-7.1874,-7.1955,-7.1999,-7.2093,-7.2192,-7.2279,-7.2357,-7.2374,-7.2442,-7.2436,-7.2559,-7.2478,-7.2648,-7.2562,-7.2616,-7.2643,-7.2651,-7.2663,-7.2571,-7.272,-7.2976,-7.3003,-7.2675,-7.2672,-7.2669,0,-7.1727,-7.1896,-7.2039,-7.2083,-7.2181,-7.2248,-7.2292,-7.2365,-7.2428,-7.2514,-7.2555,-7.2654,-7.2708,-7.2784,-7.2806,-7.2745,-7.2975,-7.2895,-7.2992,-7.2992,-7.3041,-7.3037,-7.3309,-7.3076,-7.3076,-7.3075,-7.3075,0,-7.1937,-7.2062,-7.2105,-7.2193,-7.2332,-7.235,-7.2487,-7.2526,-7.2592,-7.2687,-7.2675,-7.2764,-7.2787,-7.288,-7.2897,-7.3035,-7.306,-7.3077,-7.308,-7.3078,-7.3076,-7.3113,-7.31,-7.3083,-7.3081,-7.308,-7.3078,0,-7.212,-7.2155,-7.231,-7.2391,-7.2414,-7.2513,-7.2582,-7.2666,-7.2697,-7.2817,-7.2846,-7.2894,-7.3003,-7.3033,-7.3163,-7.3175,-7.3337,-7.3328,-7.3311,-7.3311,-7.3406,-7.3397,-7.371,-7.3753,-7.3493,-7.3495,-7.3497,0,-7.2252,-7.2348,-7.244,-7.2504,-7.2551,-7.2653,-7.2718,-7.2739,-7.2806,-7.2903,-7.2976,-7.3084,-7.3172,-7.3347,-7.3393,-7.3493,-7.3486,-7.3589,-7.3501,-7.3496,-7.3488,-7.3482,-7.3491,-7.3606,-7.3608,-7.3611,-7.3612,0,-7.2483,-7.2495,-7.259,-7.2691,-7.2769,-7.285,-7.2926,-7.2979,-7.301,-7.3087,-7.32,-7.3268,-7.3402,-7.351,-7.3611,-7.3655,-7.364,-7.364,-7.3668,-7.3667,-7.3653,-7.3662,-7.3357,-7.3633,-7.3631,-7.3629,-7.3628,-7.3627,-7.2644,-7.2729,-7.2807,-7.2913,-7.2974,-7.3046,-7.313,-7.3172,-7.3267,-7.3378,-7.3385,-7.3507,-7.3583,-7.3717,-7.3767,-7.3863,-7.3832,-7.3872,-7.3882,-7.3891,-7.39,-7.3638,-7.3881,-7.388,-7.388,-7.3879,-7.3879,0,-7.2874,-7.2924,-7.3021,-7.313,-7.3214,-7.3194,-7.3278,-7.3349,-7.3457,-7.353,-7.3617,-7.3747,-7.3851,-7.3906,-7.401,-7.4075,-7.4071,-7.4102,-7.4097,-7.4108,-7.3921,-7.3887,-7.4104,-7.4104,-7.4104,-7.4104,-7.4104,-7.4104,-7.3003,-7.3146,-7.3168,-7.334,-7.3388,-7.3509,-7.3559,-7.3626,-7.3684,-7.383,-7.3918,-7.3953,-7.4019,-7.4128,-7.4222,-7.4236,-7.4274,-7.4309,-7.4319,-7.4144,-7.4121,-7.4099,-7.4067,-7.4318,-7.4318,-7.4497,-7.4499,-7.45]}]]